| time (UTC) | temp C | wind direction | speed KPH | gust KPH | rain 1hr cm | rain 24hr cm | rain mn cm | humidity % | barometer mb |
| 20260505153214 | 10 | 252 | 0.0 | 0.0 | 0.00 | 0.00 | 0.00 | 42 | 1016.3 |
| 20260505152711 | 11 | 287 | 0.0 | 1.6 | 0.00 | 0.00 | 0.00 | 42 | 1016.4 |
| 20260505152214 | 11 | 139 | 0.0 | 0.0 | 0.00 | 0.00 | 0.00 | 43 | 1016.5 |
| 20260505151714 | 11 | 142 | 0.0 | 0.0 | 0.00 | 0.00 | 0.00 | 43 | 1016.6 |
| 20260505151211 | 10 | 142 | 0.0 | 0.0 | 0.00 | 0.00 | 0.00 | 43 | 1016.5 |
| 20260505150711 | 10 | 242 | 0.0 | 0.0 | 0.00 | 0.00 | 0.00 | 46 | 1016.6 |
| 20260505150214 | 10 | 245 | 0.0 | 0.0 | 0.00 | 0.00 | 0.00 | 45 | 1016.6 |
| 20260505140214 | 9 | 258 | 0.0 | 0.0 | 0.00 | 0.00 | 0.00 | 52 | 1017.1 |
| 20260505130213 | 8 | 228 | 0.0 | 0.0 | 0.00 | 0.00 | 0.00 | 52 | 1017.8 |
| 20260505124713 | 9 | 229 | 0.0 | 0.0 | 0.00 | 0.00 | 0.00 | 51 | 1017.7 |
| 20260505124214 | 9 | 249 | 0.0 | 1.6 | 0.00 | 0.00 | 0.00 | 50 | 1017.8 |
| 20260505123713 | 9 | 226 | 0.0 | 0.0 | 0.00 | 0.00 | 0.00 | 51 | 1017.9 |
| 20260505123210 | 8 | 248 | 0.0 | 1.6 | 0.00 | 0.00 | 0.00 | 51 | 1017.9 |
| 20260505122711 | 8 | 258 | 0.0 | 1.6 | 0.00 | 0.00 | 0.00 | 51 | 1017.8 |
| 20260505122213 | 8 | 231 | 0.0 | 0.0 | 0.00 | 0.00 | 0.00 | 50 | 1017.9 |
| 20260505121713 | 8 | 70 | 0.0 | 0.0 | 0.00 | 0.00 | 0.00 | 49 | 1017.9 |
| 20260505121211 | 8 | 247 | 0.0 | 0.0 | 0.00 | 0.00 | 0.00 | 50 | 1017.9 |
| 20260505120710 | 8 | 233 | 0.0 | 0.0 | 0.00 | 0.00 | 0.00 | 49 | 1017.9 |
| 20260505120213 | 8 | 305 | 0.0 | 0.0 | 0.00 | 0.00 | 0.00 | 48 | 1017.8 |
| 20260505115710 | 8 | 322 | 0.0 | 0.0 | 0.00 | 0.00 | 0.00 | 47 | 1017.8 |
| 20260505115214 | 8 | 97 | 0.0 | 0.0 | 0.00 | 0.00 | 0.00 | 45 | 1017.9 |
| 20260505114713 | 8 | 82 | 0.0 | 0.0 | 0.00 | 0.00 | 0.00 | 45 | 1018.0 |
| 20260505114213 | 9 | 96 | 0.0 | 0.0 | 0.00 | 0.00 | 0.00 | 45 | 1018.1 |
| 20260505113710 | 9 | 327 | 0.0 | 0.0 | 0.00 | 0.00 | 0.00 | 44 | 1018.2 |
| 20260505113213 | 9 | 23 | 0.0 | 0.0 | 0.00 | 0.00 | 0.00 | 44 | 1018.2 |
| 20260505112714 | 9 | 94 | 0.0 | 0.0 | 0.00 | 0.00 | 0.00 | 43 | 1018.3 |
| 20260505112213 | 9 | 233 | 0.0 | 0.0 | 0.00 | 0.00 | 0.00 | 43 | 1018.2 |
| 20260505111710 | 9 | 270 | 0.0 | 0.0 | 0.00 | 0.00 | 0.00 | 43 | 1018.4 |
| 20260505111213 | 9 | 246 | 0.0 | 0.0 | 0.00 | 0.00 | 0.00 | 43 | 1018.5 |
| 20260505110714 | 9 | 234 | 0.0 | 0.0 | 0.00 | 0.00 | 0.00 | 44 | 1018.6 |
| 20260505110210 | 9 | 313 | 0.0 | 0.0 | 0.00 | 0.00 | 0.00 | 43 | 1018.6 |
| 20260505102214 | 9 | 339 | 0.0 | 6.4 | 0.00 | 0.00 | 0.00 | 45 | 1018.6 |
| 20260505101713 | 9 | 248 | 0.0 | 4.8 | 0.00 | 0.00 | 0.00 | 45 | 1018.6 |
| 20260505101214 | 9 | 300 | 0.0 | 3.2 | 0.00 | 0.00 | 0.00 | 45 | 1018.7 |
| 20260505100713 | 9 | 297 | 0.0 | 0.0 | 0.00 | 0.00 | 0.00 | 45 | 1018.7 |
| 20260505100210 | 9 | 20 | 0.0 | 4.8 | 0.00 | 0.00 | 0.00 | 44 | 1018.8 |
| 20260505095711 | 9 | 215 | 0.0 | 4.8 | 0.00 | 0.00 | 0.00 | 44 | 1019.0 |
| 20260505095213 | 10 | 273 | 0.0 | 9.7 | 0.00 | 0.00 | 0.00 | 44 | 1019.1 |
| 20260505094713 | 10 | 18 | 1.6 | 4.8 | 0.00 | 0.00 | 0.00 | 44 | 1019.0 |
| 20260505094210 | 10 | 335 | 0.0 | 17.7 | 0.00 | 0.00 | 0.00 | 43 | 1019.2 |
| 20260505093710 | 10 | 266 | 0.0 | 1.6 | 0.00 | 0.00 | 0.00 | 43 | 1019.2 |
| 20260505093210 | 10 | 235 | 0.0 | 4.8 | 0.00 | 0.00 | 0.00 | 43 | 1019.2 |
| 20260505092713 | 10 | 283 | 0.0 | 19.3 | 0.00 | 0.00 | 0.00 | 43 | 1019.5 |
| 20260505092213 | 10 | 319 | 1.6 | 4.8 | 0.00 | 0.00 | 0.00 | 43 | 1019.3 |
| 20260505091713 | 10 | 293 | 0.0 | 0.0 | 0.00 | 0.00 | 0.00 | 43 | 1019.4 |
| 20260505091213 | 10 | 276 | 0.0 | 0.0 | 0.00 | 0.00 | 0.00 | 42 | 1019.3 |
| 20260505090713 | 10 | 271 | 0.0 | 11.3 | 0.00 | 0.00 | 0.00 | 42 | 1019.3 |
| 20260505090210 | 10 | 293 | 0.0 | 0.0 | 0.00 | 0.00 | 0.00 | 41 | 1019.2 |
| 20260505085710 | 10 | 212 | 0.0 | 0.0 | 0.00 | 0.00 | 0.00 | 40 | 1019.5 |
| 20260505085210 | 10 | 252 | 0.0 | 0.0 | 0.00 | 0.00 | 0.00 | 38 | 1019.9 |
| 20260505084713 | 10 | 335 | 1.6 | 1.6 | 0.00 | 0.00 | 0.00 | 39 | 1020.1 |
| 20260505084213 | 11 | 183 | 0.0 | 20.9 | 0.00 | 0.00 | 0.00 | 36 | 1020.3 |
| 20260505083713 | 10 | 260 | 4.8 | 17.7 | 0.00 | 0.00 | 0.00 | 39 | 1020.1 |
| 20260505083213 | 10 | 262 | 0.0 | 6.4 | 0.00 | 0.00 | 0.00 | 38 | 1020.1 |
| 20260505082713 | 10 | 269 | 0.0 | 3.2 | 0.00 | 0.00 | 0.00 | 39 | 1020.1 |
| 20260505082213 | 10 | 246 | 0.0 | 24.1 | 0.00 | 0.00 | 0.00 | 39 | 1020.2 |
| 20260505081713 | 10 | 258 | 20.9 | 12.9 | 0.00 | 0.00 | 0.00 | 39 | 1020.5 |
| 20260505081210 | 11 | 255 | 0.0 | 8.0 | 0.00 | 0.00 | 0.00 | 39 | 1020.4 |
| 20260505080713 | 11 | 263 | 1.6 | 17.7 | 0.00 | 0.00 | 0.00 | 39 | 1020.4 |
| 20260505080213 | 11 | 248 | 3.2 | 17.7 | 0.00 | 0.00 | 0.00 | 38 | 1020.6 |
| 20260505075713 | 11 | 259 | 0.0 | 19.3 | 0.00 | 0.00 | 0.00 | 38 | 1020.5 |
| 20260505075213 | 11 | 248 | 0.0 | 16.1 | 0.00 | 0.00 | 0.00 | 37 | 1020.4 |
| 20260505074714 | 11 | 293 | 0.0 | 17.7 | 0.00 | 0.00 | 0.00 | 37 | 1020.4 |
| 20260505074210 | 11 | 245 | 0.0 | 8.0 | 0.00 | 0.00 | 0.00 | 36 | 1020.4 |
| 20260505073713 | 11 | 212 | 1.6 | 25.7 | 0.00 | 0.00 | 0.00 | 36 | 1020.6 |
| 20260505073213 | 11 | 228 | 0.0 | 25.7 | 0.00 | 0.00 | 0.00 | 36 | 1020.4 |
| 20260505072713 | 11 | 293 | 0.0 | 20.9 | 0.00 | 0.00 | 0.00 | 35 | 1020.3 |
| 20260505072210 | 11 | 248 | 0.0 | 6.4 | 0.00 | 0.00 | 0.00 | 35 | 1020.4 |
| 20260505071714 | 11 | 262 | 1.6 | 11.3 | 0.00 | 0.00 | 0.00 | 35 | 1020.4 |
| 20260505071210 | 11 | 264 | 0.0 | 19.3 | 0.00 | 0.00 | 0.00 | 34 | 1020.6 |
| 20260505070714 | 11 | 209 | 0.0 | 11.3 | 0.00 | 0.00 | 0.00 | 34 | 1020.6 |
| 20260505070213 | 11 | 250 | 0.0 | 8.0 | 0.00 | 0.00 | 0.00 | 34 | 1020.8 |
| 20260505065713 | 11 | 246 | 0.0 | 1.6 | 0.00 | 0.00 | 0.00 | 34 | 1021.1 |
| 20260505065213 | 12 | 273 | 0.0 | 12.9 | 0.00 | 0.00 | 0.00 | 33 | 1021.0 |
| 20260505064711 | 12 | 226 | 0.0 | 4.8 | 0.00 | 0.00 | 0.00 | 33 | 1021.1 |
| 20260505064210 | 12 | 241 | 0.0 | 0.0 | 0.00 | 0.00 | 0.00 | 33 | 1021.1 |
| 20260505063713 | 12 | 236 | 0.0 | 9.7 | 0.00 | 0.00 | 0.00 | 32 | 1021.1 |
| 20260505063213 | 12 | 256 | 0.0 | 6.4 | 0.00 | 0.00 | 0.00 | 32 | 1021.4 |
| 20260505062713 | 12 | 249 | 0.0 | 1.6 | 0.00 | 0.00 | 0.00 | 32 | 1021.4 |
| 20260505062210 | 12 | 253 | 0.0 | 0.0 | 0.00 | 0.00 | 0.00 | 31 | 1021.2 |
| 20260505061710 | 12 | 245 | 0.0 | 9.7 | 0.00 | 0.00 | 0.00 | 31 | 1021.3 |
| 20260505061210 | 12 | 248 | 0.0 | 14.5 | 0.00 | 0.00 | 0.00 | 31 | 1021.4 |
| 20260505060713 | 12 | 241 | 0.0 | 9.7 | 0.00 | 0.00 | 0.00 | 32 | 1021.4 |
| 20260505060210 | 12 | 249 | 0.0 | 0.0 | 0.00 | 0.00 | 0.00 | 33 | 1021.4 |
| 20260505055714 | 12 | 229 | 0.0 | 4.8 | 0.00 | 0.00 | 0.00 | 33 | 1021.3 |
| 20260505055213 | 12 | 258 | 0.0 | 1.6 | 0.00 | 0.00 | 0.00 | 34 | 1021.2 |
| 20260505054710 | 12 | 218 | 0.0 | 0.0 | 0.00 | 0.00 | 0.00 | 34 | 1021.4 |
| 20260505054210 | 12 | 253 | 0.0 | 0.0 | 0.00 | 0.00 | 0.00 | 36 | 1021.5 |
| 20260505053710 | 12 | 256 | 0.0 | 0.0 | 0.00 | 0.00 | 0.00 | 35 | 1021.5 |
| 20260505053210 | 13 | 249 | 0.0 | 0.0 | 0.00 | 0.00 | 0.00 | 35 | 1021.3 |
| 20260505052713 | 13 | 233 | 0.0 | 0.0 | 0.00 | 0.00 | 0.00 | 35 | 1021.2 |
| 20260505052210 | 13 | 218 | 0.0 | 0.0 | 0.00 | 0.00 | 0.00 | 35 | 1021.3 |
| 20260505051713 | 13 | 244 | 0.0 | 1.6 | 0.00 | 0.00 | 0.00 | 35 | 1021.4 |
| 20260505051213 | 13 | 267 | 0.0 | 1.6 | 0.00 | 0.00 | 0.00 | 36 | 1021.3 |
| 20260505050713 | 13 | 142 | 0.0 | 0.0 | 0.00 | 0.00 | 0.00 | 36 | 1021.3 |
| 20260505050213 | 13 | 97 | 0.0 | 0.0 | 0.00 | 0.00 | 0.00 | 35 | 1021.3 |
| 20260505041714 | 13 | 246 | 0.0 | 0.0 | 0.00 | 0.00 | 0.00 | 32 | 1021.4 |
| 20260505041213 | 13 | 245 | 0.0 | 0.0 | 0.00 | 0.00 | 0.00 | 33 | 1021.4 |
| 20260505040710 | 13 | 173 | 0.0 | 0.0 | 0.00 | 0.00 | 0.00 | 33 | 1021.4 |
| 20260505040210 | 13 | 225 | 0.0 | 0.0 | 0.00 | 0.00 | 0.00 | 33 | 1021.4 |
| 20260505035710 | 13 | 253 | 0.0 | 0.0 | 0.00 | 0.00 | 0.00 | 32 | 1021.6 |
| 20260505035210 | 13 | 203 | 0.0 | 0.0 | 0.00 | 0.00 | 0.00 | 32 | 1021.6 |
| 20260505034711 | 13 | 280 | 0.0 | 0.0 | 0.00 | 0.00 | 0.00 | 32 | 1021.5 |
| 20260505034213 | 13 | 276 | 0.0 | 1.6 | 0.00 | 0.00 | 0.00 | 31 | 1021.5 |
| 20260505033710 | 13 | 319 | 0.0 | 0.0 | 0.00 | 0.00 | 0.00 | 31 | 1021.5 |
| 20260505033210 | 13 | 253 | 0.0 | 0.0 | 0.00 | 0.00 | 0.00 | 31 | 1021.4 |
| 20260505032713 | 13 | 253 | 0.0 | 1.6 | 0.00 | 0.00 | 0.00 | 31 | 1021.4 |
| 20260505032213 | 13 | 262 | 0.0 | 0.0 | 0.00 | 0.00 | 0.00 | 31 | 1021.3 |
| 20260505031713 | 13 | 38 | 0.0 | 0.0 | 0.00 | 0.00 | 0.00 | 30 | 1021.3 |
| 20260505031213 | 13 | 190 | 0.0 | 0.0 | 0.00 | 0.00 | 0.00 | 29 | 1021.2 |
| 20260505030710 | 14 | 3 | 0.0 | 0.0 | 0.00 | 0.00 | 0.00 | 29 | 1021.2 |
| 20260505030210 | 14 | 253 | 0.0 | 0.0 | 0.00 | 0.00 | 0.00 | 28 | 1021.1 |
| 20260505025713 | 14 | 338 | 0.0 | 0.0 | 0.00 | 0.00 | 0.00 | 29 | 1021.2 |
| 20260505025213 | 14 | 324 | 0.0 | 0.0 | 0.00 | 0.00 | 0.00 | 28 | 1021.1 |
| 20260505024711 | 14 | 252 | 0.0 | 0.0 | 0.00 | 0.00 | 0.00 | 28 | 1021.2 |
| 20260505024210 | 14 | 281 | 0.0 | 0.0 | 0.00 | 0.00 | 0.00 | 27 | 1020.9 |
| 20260505023710 | 14 | 180 | 0.0 | 0.0 | 0.00 | 0.00 | 0.00 | 27 | 1021.0 |
| 20260505023211 | 15 | 103 | 0.0 | 3.2 | 0.00 | 0.00 | 0.00 | 27 | 1020.9 |
| 20260505022710 | 15 | 253 | 0.0 | 1.6 | 0.00 | 0.00 | 0.00 | 26 | 1020.9 |
| 20260505022213 | 15 | 258 | 0.0 | 0.0 | 0.00 | 0.00 | 0.00 | 26 | 1020.8 |
| 20260505021713 | 15 | 243 | 0.0 | 8.0 | 0.00 | 0.00 | 0.00 | 26 | 1020.7 |
| 20260505021210 | 15 | 256 | 3.2 | 3.2 | 0.00 | 0.00 | 0.00 | 26 | 1020.8 |
| 20260505020713 | 15 | 260 | 0.0 | 0.0 | 0.00 | 0.00 | 0.00 | 25 | 1020.9 |
| 20260505020210 | 15 | 68 | 0.0 | 0.0 | 0.00 | 0.00 | 0.00 | 24 | 1020.7 |
| 20260505015710 | 15 | 205 | 0.0 | 0.0 | 0.00 | 0.00 | 0.00 | 24 | 1020.7 |
| 20260505015213 | 15 | 273 | 0.0 | 0.0 | 0.00 | 0.00 | 0.00 | 24 | 1020.6 |
| 20260505014711 | 15 | 190 | 0.0 | 1.6 | 0.00 | 0.00 | 0.00 | 24 | 1020.6 |
| 20260505014213 | 15 | 212 | 0.0 | 1.6 | 0.00 | 0.00 | 0.00 | 23 | 1020.5 |
| 20260505013713 | 15 | 246 | 0.0 | 9.7 | 0.00 | 0.00 | 0.00 | 23 | 1020.3 |
| 20260505013210 | 16 | 255 | 0.0 | 1.6 | 0.00 | 0.00 | 0.00 | 22 | 1020.3 |
| 20260505012713 | 16 | 8 | 0.0 | 8.0 | 0.00 | 0.00 | 0.00 | 22 | 1020.2 |
| 20260505012213 | 16 | 253 | 0.0 | 16.1 | 0.00 | 0.00 | 0.00 | 22 | 1020.0 |
| 20260505011713 | 16 | 159 | 3.2 | 4.8 | 0.00 | 0.00 | 0.00 | 21 | 1020.0 |
| 20260505011213 | 16 | 232 | 0.0 | 12.9 | 0.00 | 0.00 | 0.00 | 21 | 1019.9 |
| 20260505010713 | 16 | 270 | 1.6 | 19.3 | 0.00 | 0.00 | 0.00 | 21 | 1019.9 |
| 20260505010210 | 16 | 248 | 9.7 | 20.9 | 0.00 | 0.00 | 0.00 | 20 | 1020.0 |
| 20260505005713 | 16 | 287 | 4.8 | 17.7 | 0.00 | 0.00 | 0.00 | 20 | 1019.9 |
| 20260505005213 | 16 | 263 | 11.3 | 22.5 | 0.00 | 0.00 | 0.00 | 20 | 1019.9 |
| 20260505004711 | 16 | 229 | 0.0 | 12.9 | 0.00 | 0.00 | 0.00 | 19 | 1019.9 |
| 20260505004210 | 17 | 263 | 0.0 | 19.3 | 0.00 | 0.00 | 0.00 | 19 | 1019.8 |
| 20260505003711 | 17 | 293 | 1.6 | 19.3 | 0.00 | 0.00 | 0.00 | 19 | 1019.8 |
| 20260505003213 | 17 | 253 | 0.0 | 20.9 | 0.00 | 0.00 | 0.00 | 19 | 1019.8 |
| 20260505002710 | 17 | 249 | 20.9 | 20.9 | 0.00 | 0.00 | 0.00 | 18 | 1019.7 |
| 20260505002210 | 17 | 262 | 0.0 | 11.3 | 0.00 | 0.00 | 0.00 | 18 | 1019.7 |
| 20260505001713 | 17 | 246 | 1.6 | 22.5 | 0.00 | 0.00 | 0.00 | 18 | 1019.6 |
| 20260505001213 | 17 | 252 | 19.3 | 22.5 | 0.00 | 0.00 | 0.00 | 18 | 1019.5 |
| 20260505000713 | 17 | 321 | 4.8 | 35.4 | 0.00 | 0.00 | 0.00 | 18 | 1019.5 |
| 20260505000211 | 17 | 267 | 4.8 | 20.9 | 0.00 | 0.00 | 0.00 | 19 | 1019.4 |
| 20260504235710 | 17 | 266 | 0.0 | 20.9 | 0.00 | 0.00 | 0.00 | 19 | 1019.5 |
| 20260504235213 | 17 | 259 | 3.2 | 16.1 | 0.00 | 0.00 | 0.00 | 19 | 1019.4 |
| 20260504234710 | 17 | 270 | 1.6 | 14.5 | 0.00 | 0.00 | 0.00 | 20 | 1019.4 |
| 20260504234213 | 17 | 290 | 1.6 | 16.1 | 0.00 | 0.00 | 0.00 | 20 | 1019.3 |
| 20260504233713 | 17 | 281 | 0.0 | 8.0 | 0.00 | 0.00 | 0.00 | 20 | 1019.3 |
| 20260504233213 | 17 | 210 | 1.6 | 11.3 | 0.00 | 0.00 | 0.00 | 20 | 1019.2 |
| 20260504232710 | 17 | 268 | 1.6 | 17.7 | 0.00 | 0.00 | 0.00 | 20 | 1019.2 |
| 20260504232213 | 17 | 246 | 0.0 | 6.4 | 0.00 | 0.00 | 0.00 | 20 | 1019.1 |
| 20260504231710 | 17 | 248 | 0.0 | 20.9 | 0.00 | 0.00 | 0.00 | 20 | 1019.1 |
| 20260504231210 | 17 | 302 | 0.0 | 19.3 | 0.00 | 0.00 | 0.00 | 20 | 1019.1 |
| 20260504230713 | 18 | 238 | 1.6 | 27.4 | 0.00 | 0.00 | 0.00 | 20 | 1019.1 |
| 20260504230213 | 18 | 262 | 0.0 | 11.3 | 0.00 | 0.00 | 0.00 | 21 | 1019.2 |
| 20260504225713 | 18 | 215 | 0.0 | 14.5 | 0.00 | 0.00 | 0.00 | 21 | 1019.1 |
| 20260504225210 | 18 | 267 | 0.0 | 3.2 | 0.00 | 0.00 | 0.00 | 21 | 1019.1 |
| 20260504224713 | 18 | 77 | 0.0 | 24.1 | 0.00 | 0.00 | 0.00 | 20 | 1019.0 |
| 20260504224210 | 18 | 270 | 0.0 | 9.7 | 0.00 | 0.00 | 0.00 | 19 | 1019.1 |
| 20260504223713 | 18 | 287 | 0.0 | 9.7 | 0.00 | 0.00 | 0.00 | 20 | 1019.0 |
| 20260504223210 | 18 | 269 | 1.6 | 8.0 | 0.00 | 0.00 | 0.00 | 20 | 1019.2 |
| 20260504222710 | 18 | 263 | 0.0 | 1.6 | 0.00 | 0.00 | 0.00 | 20 | 1019.2 |
| 20260504222213 | 17 | 309 | 0.0 | 22.5 | 0.00 | 0.00 | 0.00 | 20 | 1019.1 |
| 20260504221713 | 17 | 203 | 0.0 | 8.0 | 0.00 | 0.00 | 0.00 | 20 | 1019.1 |
| 20260504221213 | 17 | 257 | 0.0 | 16.1 | 0.00 | 0.00 | 0.00 | 20 | 1019.1 |
| 20260504220713 | 17 | 256 | 0.0 | 9.7 | 0.00 | 0.00 | 0.00 | 20 | 1019.0 |
| 20260504220213 | 17 | 252 | 1.6 | 27.4 | 0.00 | 0.00 | 0.00 | 20 | 1019.1 |
| 20260504215713 | 17 | 248 | 3.2 | 16.1 | 0.00 | 0.00 | 0.00 | 19 | 1019.1 |
| 20260504215213 | 17 | 252 | 0.0 | 17.7 | 0.00 | 0.00 | 0.00 | 19 | 1019.0 |
| 20260504214713 | 17 | 268 | 0.0 | 9.7 | 0.00 | 0.00 | 0.00 | 19 | 1019.1 |
| 20260504214213 | 17 | 9 | 0.0 | 19.3 | 0.00 | 0.00 | 0.00 | 19 | 1019.2 |
| 20260504213710 | 17 | 290 | 0.0 | 9.7 | 0.00 | 0.00 | 0.00 | 18 | 1019.2 |
| 20260504213210 | 17 | 284 | 0.0 | 9.7 | 0.00 | 0.00 | 0.00 | 18 | 1019.3 |
| 20260504212710 | 17 | 267 | 0.0 | 14.5 | 0.00 | 0.00 | 0.00 | 18 | 1019.3 |
| 20260504212210 | 18 | 245 | 0.0 | 1.6 | 0.00 | 0.00 | 0.00 | 17 | 1019.3 |
| 20260504211710 | 17 | 212 | 0.0 | 8.0 | 0.00 | 0.00 | 0.00 | 17 | 1019.3 |
| 20260504211213 | 17 | 266 | 0.0 | 12.9 | 0.00 | 0.00 | 0.00 | 17 | 1019.3 |
| 20260504210710 | 17 | 238 | 0.0 | 29.0 | 0.00 | 0.00 | 0.00 | 16 | 1019.4 |
| 20260504210213 | 17 | 263 | 0.0 | 20.9 | 0.00 | 0.00 | 0.00 | 16 | 1019.4 |
| 20260504205713 | 17 | 207 | 0.0 | 16.1 | 0.00 | 0.00 | 0.00 | 16 | 1019.4 |
| 20260504205213 | 17 | 259 | 0.0 | 6.4 | 0.00 | 0.00 | 0.00 | 15 | 1019.5 |
| 20260504204710 | 17 | 238 | 0.0 | 19.3 | 0.00 | 0.00 | 0.00 | 16 | 1019.4 |
| 20260504204213 | 17 | 236 | 0.0 | 25.7 | 0.00 | 0.00 | 0.00 | 15 | 1019.5 |
| 20260504203710 | 17 | 268 | 0.0 | 25.7 | 0.00 | 0.00 | 0.00 | 14 | 1019.5 |
| 20260504203213 | 17 | 243 | 0.0 | 27.4 | 0.00 | 0.00 | 0.00 | 14 | 1019.4 |
| 20260504202713 | 17 | 267 | 0.0 | 14.5 | 0.00 | 0.00 | 0.00 | 16 | 1019.6 |
| 20260504202210 | 17 | 281 | 0.0 | 14.5 | 0.00 | 0.00 | 0.00 | 15 | 1019.5 |
| 20260504201713 | 18 | 270 | 0.0 | 3.2 | 0.00 | 0.00 | 0.00 | 16 | 1019.5 |
| 20260504201213 | 18 | 232 | 0.0 | 1.6 | 0.00 | 0.00 | 0.00 | 16 | 1019.4 |
| 20260504200713 | 18 | 221 | 0.0 | 6.4 | 0.00 | 0.00 | 0.00 | 16 | 1019.4 |
| 20260504200213 | 18 | 238 | 0.0 | 4.8 | 0.00 | 0.00 | 0.00 | 16 | 1019.3 |
| 20260504195713 | 18 | 232 | 0.0 | 1.6 | 0.00 | 0.00 | 0.00 | 18 | 1019.2 |
| 20260504195210 | 18 | 200 | 0.0 | 3.2 | 0.00 | 0.00 | 0.00 | 16 | 1019.1 |
| 20260504194713 | 18 | 307 | 0.0 | 20.9 | 0.00 | 0.00 | 0.00 | 16 | 1019.1 |
| 20260504194210 | 18 | 253 | 0.0 | 4.8 | 0.00 | 0.00 | 0.00 | 16 | 1019.2 |
| 20260504193710 | 18 | 228 | 0.0 | 1.6 | 0.00 | 0.00 | 0.00 | 15 | 1019.1 |
| 20260504193210 | 18 | 311 | 0.0 | 29.0 | 0.00 | 0.00 | 0.00 | 16 | 1019.2 |
| 20260504192710 | 18 | 325 | 0.0 | 4.8 | 0.00 | 0.00 | 0.00 | 17 | 1019.1 |
| 20260504192210 | 18 | 274 | 0.0 | 3.2 | 0.00 | 0.00 | 0.00 | 19 | 1019.2 |
| 20260504191713 | 18 | 352 | 0.0 | 0.0 | 0.00 | 0.00 | 0.00 | 22 | 1019.0 |
| 20260504191210 | 18 | 259 | 1.6 | 6.4 | 0.00 | 0.00 | 0.00 | 21 | 1019.0 |
| 20260504190713 | 18 | 284 | 0.0 | 1.6 | 0.00 | 0.00 | 0.00 | 23 | 1019.0 |
| 20260504190210 | 17 | 290 | 0.0 | 0.0 | 0.00 | 0.00 | 0.00 | 24 | 1018.9 |
| 20260504185713 | 17 | 225 | 0.0 | 0.0 | 0.00 | 0.00 | 0.00 | 23 | 1018.9 |
| 20260504185213 | 17 | 248 | 0.0 | 0.0 | 0.00 | 0.00 | 0.00 | 23 | 1019.1 |
| 20260504184713 | 17 | 250 | 0.0 | 1.6 | 0.00 | 0.00 | 0.00 | 22 | 1019.1 |
| 20260504184213 | 17 | 235 | 0.0 | 11.3 | 0.00 | 0.00 | 0.00 | 22 | 1019.2 |
| 20260504183713 | 17 | 280 | 0.0 | 3.2 | 0.00 | 0.00 | 0.00 | 22 | 1019.0 |
| 20260504183210 | 16 | 234 | 0.0 | 0.0 | 0.00 | 0.00 | 0.00 | 23 | 1019.0 |
| 20260504182710 | 16 | 278 | 0.0 | 1.6 | 0.00 | 0.00 | 0.00 | 21 | 1019.3 |
| 20260504182210 | 16 | 327 | 0.0 | 0.0 | 0.00 | 0.00 | 0.00 | 24 | 1019.2 |
| 20260504181710 | 16 | 255 | 0.0 | 1.6 | 0.00 | 0.00 | 0.00 | 23 | 1019.3 |
| 20260504181210 | 16 | 259 | 0.0 | 3.2 | 0.00 | 0.00 | 0.00 | 22 | 1019.4 |
| 20260504180713 | 16 | 194 | 0.0 | 14.5 | 0.00 | 0.00 | 0.00 | 22 | 1019.4 |
| 20260504180210 | 17 | 253 | 1.6 | 4.8 | 0.00 | 0.00 | 0.00 | 21 | 1019.3 |
| 20260504175713 | 17 | 256 | 0.0 | 4.8 | 0.00 | 0.00 | 0.00 | 21 | 1019.4 |
| 20260504175213 | 17 | 226 | 0.0 | 4.8 | 0.00 | 0.00 | 0.00 | 23 | 1019.4 |
| 20260504174710 | 17 | 257 | 0.0 | 0.0 | 0.00 | 0.00 | 0.00 | 24 | 1019.5 |
| 20260504174213 | 17 | 163 | 0.0 | 1.6 | 0.00 | 0.00 | 0.00 | 26 | 1019.5 |
| 20260504173710 | 16 | 258 | 0.0 | 0.0 | 0.00 | 0.00 | 0.00 | 26 | 1019.5 |
| 20260504173213 | 16 | 315 | 0.0 | 0.0 | 0.00 | 0.00 | 0.00 | 27 | 1019.3 |
| 20260504172713 | 16 | 53 | 0.0 | 0.0 | 0.00 | 0.00 | 0.00 | 27 | 1019.3 |
| 20260504172210 | 16 | 262 | 0.0 | 1.6 | 0.00 | 0.00 | 0.00 | 29 | 1019.5 |
| 20260504171710 | 16 | 253 | 0.0 | 0.0 | 0.00 | 0.00 | 0.00 | 30 | 1019.5 |
| 20260504171213 | 16 | 278 | 0.0 | 0.0 | 0.00 | 0.00 | 0.00 | 30 | 1019.3 |
| 20260504170713 | 16 | 252 | 0.0 | 0.0 | 0.00 | 0.00 | 0.00 | 31 | 1019.2 |
| 20260504170213 | 16 | 242 | 0.0 | 0.0 | 0.00 | 0.00 | 0.00 | 31 | 1019.3 |
| 20260504160213 | 15 | 259 | 0.0 | 0.0 | 0.00 | 0.00 | 0.00 | 36 | 1019.5 |